AMAZONAS 4A

Last updated on Mon Nov 03 2025 00:02:57 GMT+0000 (Coordinated Universal Time)

1 39616U 14011A 25306.49144649 -.00000240 00000+0 00000+0 0 9994 2 39616 0.0547 185.0528 0005904 35.9021 284.0197 1.00270006 42441
UTC large
Height (km)
Speed (km/s)
/
Latitude / Longitude
Inclination (degrees)
Orbital Period (minutes)
Azimuth
Elevation
Range (km)
Doppler Factor

Next 0 passes for location: London (51.5072 / 0.1276)

Sorry there are no passes over London.